Location: Borojevi?i
(45.0486°N, 16.2297°E)
Time: 20:33:38
(UTC+00:00)

Iridium 4 Rocket - Pass Details

Date: 08 August 2020
Orbit: 586 x 903 km, 86.9° (Epoch: 21 September)

Event Time Altitude Azimuth Distance (km) Brightness Sun altitude
Exits shadow 20:41:58 30° 75° (ENE) 1,135 4.2 -21.5°
Drops below altitude 10° 20:45:20 10° 24° (NNE) 1,960 6.0 -21.8°
Sets 20:47:40 0° 13° (NNE) 2,846 7.1 -22.1°
